Find Starlink 34432

NORAD ID: 64426 Int'l Des: 2025-129 Owner: SPXS Country: US Constellation: starlink operational
LEOCIRCULAR

当前视图

正在加载3D地球...

关于 Starlink 34432

正在加载描述...

即将过境

Passes for default location (London). Set your location on the main map for personalized predictions.

高度历史

Loading altitude history...

两行轨道根数

1 64426U 25129Q 26149.51183431 .00004312 00000-0 36888-3 0 9995
2 64426 70.0012 230.6693 0003421 270.1950 89.8817 14.98339887 53332
Epoch: May 29, 2026 • Age: 13 hours

当前状态

高度 574.2 km
速度 7.57 km/s
星下点 12.21°N, 31.15°W
发射日期 Jun 17, 2025
运行时间 0.9 years
类型 internet

技术详情

分类 Payload
质量 575.00 kg
干质量 530.00 kg
总质量 575.00 kg
长度 0.30 m
直径 4.10 m
跨度 29.00 m
形状 Box + pan
制造商 SPXS
平台类型 Starlink V2MO
阶段状态 In Orbit
所有者/国家 SPXS/US

Most Searched